189  
ASUS44 KMEG 222210  
RWRMEG  
MEMPHIS CWA HOURLY WEATHER ROUNDUP  
NATIONAL WEATHER SERVICE MEMPHIS TN  
400 PM CST WED JAN 22 2020  
   
..WEST TENNESSEE
 
 
 
CITY SKY/WX TMP DP RH WIND PRES REMARKS
 
MEMPHIS INTL CLOUDY 44 17 33 SE8 30.19S  
NWS MEMPHIS N/A 43 N/A N/A MISG N/A  
JACKSON FAIR 41 18 39 S5 30.21F  
COVINGTON SUNNY 39 21 48 S3 30.20S  
SOMERVILLE SUNNY 43 19 39 VRB5 30.17F  
BOLIVAR SUNNY 43 19 39 SE8 30.19F  
LEXINGTON SUNNY 43 16 33 S7 30.22F  
SELMER SUNNY 43 19 39 E7 30.21F  
DYERSBURG FAIR 38 21 50 SE8 30.21F WCI 32  
UNION CITY SUNNY 37 21 52 SE6 30.21S WCI 33  
PARIS SUNNY 37 18 44 SE6 30.22F WCI 33  
HUNTINGDON SUNNY 39 21 48 S6 30.22F WCI 35  
 
   
..EASTERN ARKANSAS
 
 
 
CITY SKY/WX TMP DP RH WIND PRES REMARKS
 
JONESBORO CLOUDY 37 24 59 S10 30.19F WCI 30  
WEST MEMPHIS CLOUDY 41 26 55 CALM 30.18F  
BATESVILLE CLOUDY N/A N/A N/A S7 30.16F  
NEWPORT CLOUDY 37 25 61 S13 30.19F WCI 29  
WALNUT RIDGE CLOUDY 36 26 67 S5 30.19F WCI 32  
BLYTHEVILLE FAIR 39 22 50 S6 30.20F WCI 35  
SEARCY LGT RAIN 37 30 75 S7 30.18F WCI 32  
STUTTGART LGT RAIN 38 29 70 SE9 30.19S WCI 31  
PINE BLUFF LGT RAIN 36 29 75 SE9 30.18S WCI 29  
MONTICELLO MIX PCPN 37 32 82 SE3 30.18S  
 
   
..NORTH MISSISSIPPI
 
 
 
CITY SKY/WX TMP DP RH WIND PRES REMARKS
 
TUPELO FAIR 44 20 38 S8 30.24F  
OXFORD FAIR 41 18 38 VRB5G13 30.21F  
BATESVILLE FAIR 43 19 39 VRB6 30.20F  
OLIVE BRANCH SUNNY 43 16 33 S7 30.19F  
TUNICA N/A 39 27 60 SW3 30.21F  
CLARKSDALE SUNNY 43 25 49 S6 30.20F  
CORINTH FAIR 45 18 33 S7 30.22F  
GREENWOOD FAIR 44 21 40 SE9 30.19F  
COLUMBUS PTSUNNY 45 19 36 SW6 30.23F  
STARKVILLE FAIR 43 23 45 SE8 30.25F  
GOLDEN TRIANGL FAIR 43 22 43 S5 30.25F  
 
   
..SOUTHEAST MISSOURI
 
 
 
CITY SKY/WX TMP DP RH WIND PRES REMARKS
 
KENNETT FAIR 37 27 65 S5 30.19F WCI 34  
MALDEN FAIR 36 27 69 MISG 30.21F  
WEST PLAINS CLOUDY 32 25 75 S8 30.10F WCI 25  
POPLAR BLUFF CLOUDY 34 23 64 SE7 30.19F WCI 28  
CAPE GIRARDEAU FAIR 33 23 66 SE8 30.20F WCI 26  
 
   
..NORTHWEST ALABAMA
 
 
 
CITY SKY/WX TMP DP RH WIND PRES REMARKS
 
MUSCLE SHOALS FAIR 47 14 26 SE9 30.24F  
 
   
..MIDDLE TENNESSEE
 
 
 
CITY SKY/WX TMP DP RH WIND PRES REMARKS
 
NASHVILLE CLOUDY 46 14 27 SE7 30.26F  
CLARKSVILLE FAIR 41 20 43 CALM 30.24F  
COLUMBIA SUNNY 45 12 26 S6G13 30.22F  
LAWRENCEBURG CLEAR 43 18 36 SE8 30.23S  
LEWISBURG CLEAR 45 14 29 SE6 30.24F  
 
   
..WESTERN KENTUCKY
 
 
 
CITY SKY/WX TMP DP RH WIND PRES REMARKS
 
PADUCAH FAIR 35 18 49 SE7 30.21F WCI 29  
FORT CAMPBELL FAIR 39 20 46 N3 30.23F  
 
   
..CENTRAL ARKANSAS
 
 
 
CITY SKY/WX TMP DP RH WIND PRES REMARKS
 
LITTLE ROCK LGT RAIN 35 31 85 SE6 30.17F WCI 30  
 
SKY/WX REPORTED AS FAIR MEANS FEW OR NO CLOUDS BELOW  
12 THOUSAND FEET.  
 
 
 
CLICK HERE TO GO TO PREVIOUS BULLETINS.

The Nexlab TN Page
The Nexlab MS Page
The Nexlab AR Page Main Text Page